"Pseudo-MPEC" for ST25E24

Created 2025 Jun 17 14:35:05 UT using Find_Orb

Click here for an explanation of pseudo-MPECs

 
 Astrometry: 
     ST25E24* C2025 05 31.23309114 06 41.147+15 39 09.91   ~5VEl 20.7 GVNEOCPU68
     ST25E24  C2025 05 31.23687014 06 40.688+15 39 13.87   ~5VEl 20.7 GVNEOCPU68
     ST25E24  C2025 05 31.25341014 06 38.184+15 39 42.58   ~5VEl 19.4 GVNEOCPU68
     ST25E24  C2025 05 31.25719014 06 37.692+15 39 46.47   ~5VEl 19.4 GVNEOCPU68

Station data:
(U68) JPL SynTrack Robotic Telescope, Auberry  (N37.070387 W119.412990)
   US/California.  Observers N. Saini, C. Zhai, R. Trahan, M. Zhan, M. Shao.
   0.28-m f/2.2 Schmidt + CCD.

Orbital elements:  ST25E24
   Perihelion 2025 Aug 4.07987 +/- 138 TT =  1:55:00 (JD 2460891.57987)
Epoch 2025 May 31.0 TT = JDT 2460826.5   Earth MOID: 0.0424   Ma: 0.0649
M 325.81565136 +/- 100              (J2000 ecliptic)             AutoNEOCP
n   0.52526764 +/- 0.345            Peri.  170.35679 +/- 28
a   1.52130262 +/- 0.665            Node   144.87361 +/- 47
e   0.3900067 +/- 0.151             Incl.    4.64214 +/- 31
P   1.876/685.352d         H 21.77  G  0.15   U 12.0  SR
q 0.92798436 +/- 0.425    Q 2.11462089 +/- 0.619
From 4 observations 2025 May 31 (34.7 min); mean residual 0".85
Residuals in arcseconds: 
250531 U68  .58-  .83+    250531 U68  .52-  1.2+    
250531 U68  .77+  1.2-    250531 U68  .34+  .85-    

Ephemerides (geocentric):
Date (UTC) HH   RA             Dec           delta  r     elong  mag " sig PA
---- --------  ------------   ------------  ------ ------ -----  --- --------
2025 06 17 15  13 26 02.115   +23 08 38.26  .15815 1.0601 102.0 20.3  33d  96
2025 06 17 16  13 25 55.528   +23 09 45.03  .15804 1.0599 101.9 20.3  33d  96
2025 06 17 17  13 25 48.934   +23 10 51.83  .15793 1.0597 101.9 20.3  33d  96
2025 06 17 18  13 25 42.334   +23 11 58.66  .15782 1.0595 101.8 20.3  33d  96
2025 06 17 19  13 25 35.727   +23 13 05.53  .15771 1.0593 101.7 20.3  34d  96
2025 06 17 20  13 25 29.114   +23 14 12.44  .15760 1.0591 101.7 20.3  34d  96
2025 06 17 21  13 25 22.494   +23 15 19.39  .15749 1.0589 101.6 20.3  34d  96
2025 06 17 22  13 25 15.867   +23 16 26.37  .15738 1.0587 101.5 20.3  34d  96
2025 06 17 23  13 25 09.233   +23 17 33.39  .15726 1.0585 101.5 20.3  34d  96
2025 06 18 00  13 25 02.592   +23 18 40.44  .15715 1.0583 101.4 20.3  34d  97
2025 06 18 01  13 24 55.945   +23 19 47.54  .15704 1.0581 101.3 20.3  34d  97
2025 06 18 02  13 24 49.291   +23 20 54.67  .15693 1.0579 101.3 20.3  34d  97
2025 06 18 03  13 24 42.629   +23 22 01.84  .15682 1.0577 101.2 20.3  34d  97
2025 06 18 04  13 24 35.961   +23 23 09.05  .15671 1.0575 101.1 20.3  34d  97
2025 06 18 05  13 24 29.286   +23 24 16.29  .15660 1.0572 101.1 20.3  34d  97
2025 06 18 06  13 24 22.603   +23 25 23.58  .15649 1.0570 101.0 20.3  34d  97
2025 06 18 07  13 24 15.914   +23 26 30.90  .15637 1.0568 100.9 20.3  34d  97
2025 06 18 08  13 24 09.217   +23 27 38.26  .15626 1.0566 100.9 20.3  34d  97
2025 06 18 09  13 24 02.514   +23 28 45.66  .15615 1.0564 100.8 20.3  34d  97
2025 06 18 10  13 23 55.803   +23 29 53.11  .15604 1.0562 100.7 20.3  34d  97
2025 06 18 11  13 23 49.085   +23 31 00.59  .15593 1.0560 100.7 20.3  34d  97
2025 06 18 12  13 23 42.359   +23 32 08.11  .15582 1.0558 100.6 20.3  34d  97
2025 06 18 13  13 23 35.627   +23 33 15.67  .15571 1.0556 100.5 20.3  34d  97
2025 06 18 14  13 23 28.887   +23 34 23.27  .15560 1.0554 100.5 20.3  34d  97
2025 06 18 15  13 23 22.139   +23 35 30.92  .15548 1.0552 100.4 20.3  34d  97
2025 06 18 16  13 23 15.385   +23 36 38.60  .15537 1.0550 100.3 20.3  34d  97
2025 06 18 17  13 23 08.622   +23 37 46.33  .15526 1.0548 100.3 20.3  34d  97
2025 06 18 18  13 23 01.853   +23 38 54.09  .15515 1.0546 100.2 20.3  34d  97
2025 06 18 19  13 22 55.076   +23 40 01.90  .15504 1.0544 100.1 20.3  34d  97
2025 06 18 20  13 22 48.291   +23 41 09.75  .15493 1.0542 100.1 20.3  34d  97
2025 06 18 21  13 22 41.499   +23 42 17.64  .15482 1.0540 100.0 20.3  34d  97
2025 06 18 22  13 22 34.699   +23 43 25.58  .15471 1.0538  99.9 20.3  34d  97
2025 06 18 23  13 22 27.892   +23 44 33.56  .15459 1.0536  99.9 20.3  34d  97
2025 06 19 00  13 22 21.076   +23 45 41.58  .15448 1.0534  99.8 20.3  34d  97
2025 06 19 01  13 22 14.253   +23 46 49.64  .15437 1.0532  99.7 20.3  34d  97
2025 06 19 02  13 22 07.423   +23 47 57.75  .15426 1.0530  99.7 20.3  34d  98
2025 06 19 03  13 22 00.584   +23 49 05.90  .15415 1.0528  99.6 20.3  34d  98
2025 06 19 04  13 21 53.738   +23 50 14.09  .15404 1.0526  99.5 20.3  34d  98
2025 06 19 05  13 21 46.884   +23 51 22.33  .15393 1.0524  99.5 20.3  34d  98
2025 06 19 06  13 21 40.022   +23 52 30.61  .15381 1.0522  99.4 20.3  34d  98
2025 06 19 07  13 21 33.152   +23 53 38.94  .15370 1.0520  99.3 20.3  34d  98
2025 06 19 08  13 21 26.274   +23 54 47.31  .15359 1.0518  99.3 20.3  34d  98
2025 06 19 09  13 21 19.388   +23 55 55.72  .15348 1.0516  99.2 20.3  34d  98
2025 06 19 10  13 21 12.493   +23 57 04.18  .15337 1.0514  99.1 20.3  34d  98
2025 06 19 11  13 21 05.591   +23 58 12.69  .15326 1.0512  99.1 20.3  34d  98
2025 06 19 12  13 20 58.681   +23 59 21.24  .15315 1.0510  99.0 20.3  34d  98
2025 06 19 13  13 20 51.762   +24 00 29.84  .15303 1.0508  98.9 20.4  34d  98
2025 06 19 14  13 20 44.835   +24 01 38.49  .15292 1.0506  98.9 20.4  34d  98